sat.trackr.live / text

‹ back to catalog

STARLINK-5767

NORAD 55586 · 2023-020T

PAYLOAD ACTIVE UNKNOWN

§ Identity

Operator
Country
US
Launch date
2023-02-12
Launch site
AFETR
Launch vehicle
Mass (kg)
RCS (m²)

Purposes: comms

External: N2YO · Heavens-Above · Gunter

§ Orbital elements

Epoch: 2026-05-24T21:16:54.075936Z

Period
94.26 min
Inclination
42.9992°
Eccentricity
0.0001354
Mean motion
15.27618245 rev/d
Perigee alt
482.0 km
Apogee alt
483.9 km
Semi-major
6,861.1 km
B*
-1.9405e-4
RAAN
295.1008°
Arg perigee
306.2892°
Mean anomaly
53.7835°
Rev number
18,056

§ Raw data

STARLINK-57671 55586U 23020T   26144.88673699 -.00005604  00000+0 -19405-3 0  99972 55586  42.9992 295.1008 0001354 306.2892  53.7835 15.27618245180566

JSON: /api/v1/satellites/55586 · /tle

For live sub-satellite position, see the globe view (requires WebGL).

§ Visibility from observer

Set your observer location to see the next 7 days of passes ≥ 10°. The values pass through the URL so the page stays shareable.

No JS? Fill the form by hand. The geolocation button needs JavaScript.